Weather History for Salem, OR

Change the Weather History Date:

Thursday, April 10, 2014

  Actual Average Record
Temperature  
Mean Temperature 53 °F 50 °F  
Max Temperature 66 °F 60 °F 80 °F (2004)
Min Temperature 39 °F 39 °F 28 °F (1953)
Degree Days  
Heating Degree Days 12 16  
Month to date heating degree days 114 160  
Since 1 July heating degree days 3886 3963  
Cooling Degree Days 0 0  
Month to date cooling degree days 0 0  
Year to date cooling degree days 0 0  
Growing Degree Days 4 (Base 50)    
Moisture  
Dew Point 37 °F    
Average Humidity 57    
Maximum Humidity 82    
Minimum Humidity 31    
Precipitation  
Precipitation 0.00 in 0.10 in 1.01 in (1984)
Month to date precipitation 0.32 1.08  
Year to date precipitation 16.91 15.59  
Sea Level Pressure  
Sea Level Pressure 30.17 in    
Wind  
Wind Speed 7 mph (North)    
Max Wind Speed 15 mph    
Max Gust Speed 20 mph    
Visibility 10 miles    
Events      
T = Trace of Precipitation, MM = Missing Value Source: NWS Daily Summary

Daily Weather History Graph

Daily Weather History Graph

Search for Another Location

Airport:

Trip Planner

Search our weather history database for the weather conditions in past years. The results will help you decide how hot, cold, wet, or windy it might be!

Date:

Astronomy

Apr. 10, 2014 Rise Set
Actual Time 6:36 AM PDT 7:51 PM PDT
Civil Twilight 6:05 AM PDT 8:21 PM PDT
Nautical Twilight 5:29 AM PDT 8:57 PM PDT
Astronomical Twilight 4:51 AM PDT 9:36 PM PDT
Moon 3:29 PM PDT (4/10) 4:13 AM PDT (4/10)
Length of Visible Light 14h 15m
Length of Day
13h 15m
Waxing Gibbous, 80% of the Moon is Illuminated
Apr 10
Waxing Gibbous
Apr 15
Full
Apr 22
Last Quarter
Apr 28
New
May 6
First Quarter

Hourly Weather History & Observations

Time (PDT) Temp. Windchill Dew Point Humidity Pressure Visibility Wind Dir Wind Speed Gust Speed Precip Events Conditions
12:56 AM 46.9 °F - 37.9 °F 71% 30.22 in 10.0 mi NNE 4.6 mph - N/A   Clear
1:56 AM 46.0 °F - 37.9 °F 73% 30.22 in 10.0 mi Calm Calm - N/A   Clear
2:56 AM 45.0 °F 42.6 °F 37.9 °F 76% 30.22 in 10.0 mi NNW 4.6 mph - N/A   Clear
3:56 AM 44.1 °F 40.8 °F 37.9 °F 79% 30.23 in 10.0 mi North 5.8 mph - N/A   Clear
5:56 AM 42.1 °F 39.2 °F 37.0 °F 82% 30.22 in 10.0 mi NNE 4.6 mph - N/A   Clear
6:56 AM 41.0 °F 37.1 °F 36.0 °F 82% 30.24 in 10.0 mi NNW 5.8 mph - N/A   Clear
7:56 AM 46.0 °F 44.8 °F 39.0 °F 76% 30.23 in 10.0 mi Variable 3.5 mph - N/A   Clear
8:56 AM 48.9 °F - 39.0 °F 69% 30.25 in 10.0 mi NNE 6.9 mph - N/A   Clear
9:56 AM 50.0 °F - 37.9 °F 63% 30.25 in 10.0 mi NE 8.1 mph - N/A   Clear
11:56 AM 57.0 °F - 37.9 °F 49% 30.24 in 10.0 mi NNE 5.8 mph - N/A   Unknown
12:56 PM 60.1 °F - 33.1 °F 36% 30.22 in 10.0 mi Variable 6.9 mph - N/A   Clear
1:56 PM 62.1 °F - 35.1 °F 37% 30.20 in 10.0 mi North 13.8 mph 17.3 mph N/A   Clear
2:56 PM 64.0 °F - 36.0 °F 35% 30.18 in 10.0 mi North 12.7 mph - N/A   Clear
3:56 PM 64.0 °F - 37.0 °F 37% 30.15 in 10.0 mi North 10.4 mph - N/A   Clear
4:56 PM 64.9 °F - 36.0 °F 34% 30.12 in 10.0 mi North 11.5 mph - N/A   Clear
5:56 PM 64.9 °F - 35.1 °F 33% 30.11 in 10.0 mi North 10.4 mph - N/A   Clear
6:56 PM 64.0 °F - 34.0 °F 33% 30.09 in 10.0 mi North 6.9 mph - N/A   Clear
7:56 PM 57.9 °F - 36.0 °F 44% 30.09 in 10.0 mi North 5.8 mph - N/A   Clear
8:56 PM 57.9 °F - 35.1 °F 42% 30.09 in 10.0 mi NNE 5.8 mph - N/A   Clear
9:56 PM 53.1 °F - 39.9 °F 61% 30.09 in 10.0 mi North 6.9 mph - N/A   Clear
10:56 PM 51.1 °F - 41.0 °F 68% 30.11 in 10.0 mi NNW 8.1 mph - N/A   Clear
11:56 PM 48.9 °F - 41.0 °F 74% 30.12 in 10.0 mi NNW 6.9 mph - N/A   Clear